Location: Luxembourg
(49.6117°N, 6.1300°E)
Time: 04:35:46
(UTC+01:00)

ISS - Pass Details

Date: 06 December 2021
Orbit: 413 x 422 km, 51.6° (Epoch: 22 January)

Event Time Altitude Azimuth Distance (km) Brightness Sun altitude
Rises 17:51:31 0° 289° (WNW) 2,386 0.9 -11.6°
Reaches altitude 10° 17:53:41 10° 283° (WNW) 1,516 0.0 -11.9°
Maximum altitude 17:56:57 45° 209° (SSW) 587 -2.7 -12.4°
Drops below altitude 10° 18:00:12 10° 135° (SE) 1,503 -1.2 -12.9°
Enters shadow 18:01:10 - 132° (SE) 1,893 -0.7 -13.1°
